CAPE
0 0 0 0 0 0 0 0 0 0 1 40 328 1076 1279 1389 1386 1375 1355 1393 1616 1843 1914 1487 970 824 803 622 444 400 582 853
0 0 0 0 0 0 0 0 0 0 0 0 19 738 1241 1134 1183 1288 1159 1123 1289 1570 1768 1507 972 715 641 633 562 458 488 504
0 0 0 0 0 0 0 0 0 0 0 0 0 83 665 581 1262 1261 1369 1430 1260 1179 1350 1455 1072 696 531 466 452 586 378 391
0 0 0 0 0 0 0 0 0 0 0 0 0 0 0 0 375 455 1006 1120 1251 1186 1077 1204 1074 984 741 395 466 327 298 323
0 0 0 0 0 0 0 0 0 0 0 0 0 0 0 0 0 18 55 394 1257 1102 1247 1249 968 875 589 631 787 497 348 345
0 0 0 0 0 0 0 0 0 0 0 0 0 0 0 0 0 0 0 0 0 263 1035 1131 1005 1017 895 719 541 521 455 498
0 0 0 0 0 0 0 0 0 0 0 0 0 0 0 0 0 0 0 0 0 0 0 174 1047 1036 1228 953 746 615 570 538
0 0 0 0 0 0 0 0 0 0 0 0 0 0 0 0 0 0 0 0 0 0 0 0 4 991 1075 1020 1178 848 640 536
0 0 0 0 0 0 0 0 0 0 0 0 0 0 0 0 0 0 0 0 0 0 0 0 26 486 1262 1193 797 981 873 564
0 0 0 0 0 0 0 0 0 0 0 0 0 0 0 0 0 0 0 0 0 0 0 0 0 58 363 1267 1195 742 816 757
0 0 0 0 0 0 0 0 0 0 0 0 0 0 0 0 0 0 0 0 0 0 0 0 0 0 12 172 853 855 740 694
0 0 0 0 0 0 0 0 0 0 0 0 0 0 0 0 0 1 2 1 1 3 2 2 5 0 1 5 198 540 950 702
0 0 0 0 0 0 0 0 0 0 0 0 0 0 2 2 1 1 2 4 4 4 5 4 4 3 9 2 13 185 483 718
0 0 0 0 0 0 0 0 0 0 0 0 0 0 1 1 1 1 1 3 4 4 4 2 2 4 6 4 10 5 337 405
0 0 0 0 0 0 0 0 0 0 0 0 0 0 0 0 1 2 1 1 2 1 0 2 3 2 1 5 12 27 21 216
0 0 0 0 0 0 0 0 0 0 0 0 0 0 1 1 1 2 1 1 0 4 2 1 2 3 2 1 2 4 4 31
0 0 0 0 0 0 0 0 0 0 0 0 0 0 1 1 2 4 0 1 0 6 3 2 2 4 4 3 3 2 3 6
0 0 0 0 0 0 0 0 0 0 0 0 0 0 0 1 1 2 1 0 0 0 2 4 2 5 2 4 5 5 5 5
0 0 0 0 0 0 0 0 0 0 0 0 0 0 0 1 2 0 0 1 1 0 1 4 4 2 3 3 3 3 6 7
0 0 0 0 0 0 0 0 0 0 1 1 0 0 0 0 1 0 0 0 1 2 1 3 5 1 2 2 4 4 7 4
CIN
0 0 0 0 0 0 0 0 0 0 -55 -55 -214 -68 -40 -26 -28 -35 -44 -46 -17 -1 -0 -24 -60 -61 -50 -64 -92 -97 -68 -6
0 0 0 0 0 0 0 0 0 0 0 0 -52 -76 -31 -25 -27 -37 -51 -59 -45 -18 -1 -8 -46 -69 -82 -81 -80 -93 -79 -28
0 0 0 0 0 0 0 0 0 0 0 0 0 -131 -58 -109 -11 -4 -17 -23 -42 -38 -25 -14 -38 -71 -107 -112 -99 -58 -27 -3
0 0 0 0 0 0 0 0 0 0 0 0 0 0 0 0 -106 -130 -42 -17 -30 -36 -41 -21 -29 -23 -31 -117 -90 -85 -33 -3
0 0 0 0 0 0 0 0 0 0 0 0 0 0 0 0 0 -27 -240 -114 -1 -3 -5 -7 -14 -9 -13 -3 -20 -45 -34 -6
0 0 0 0 0 0 0 0 0 0 0 0 0 0 0 0 0 0 0 0 0 -94 -3 -7 -12 -4 -1 -4 -1 -5 -9 -0
0 0 0 0 0 0 0 0 0 0 0 0 0 0 0 0 0 0 0 0 0 0 0 -77 -4 -10 -7 -0 -1 -1 -2 -1
0 0 0 0 0 0 0 0 0 0 0 0 0 0 0 0 0 0 0 0 0 0 0 0 -26 -3 -11 -23 -7 -1 -1 -3
0 0 0 0 0 0 0 0 0 0 0 0 0 0 0 0 0 0 0 0 0 0 0 0 -60 -20 -0 -3 -15 -13 -1 -4
0 0 0 0 0 0 0 0 0 0 0 0 0 0 0 0 0 0 0 0 0 0 0 0 0 -53 -25 0 -2 -13 -15 -3
0 0 0 0 0 0 0 0 0 0 0 0 0 0 0 0 0 0 -1 0 0 0 0 0 0 0 -91 -68 -0 -6 -22 -18
0 0 0 0 0 0 0 0 0 0 0 0 0 0 -1 -0 0 -0 -0 -1 -0 -0 -0 -1 -0 0 0 -0 -27 -1 -0 -9
0 0 0 0 0 0 0 0 0 0 0 0 0 0 -0 -0 -1 -1 -0 -0 -0 -0 -0 -0 -1 -1 -0 -1 -0 -15 -3 -3
0 0 0 0 0 0 0 0 0 0 0 0 0 0 -1 -0 -1 -1 -1 -0 -0 -0 -0 0 -0 -0 -0 0 -0 -1 -13 -5
0 0 0 0 0 0 0 0 0 0 0 0 0 0 -0 -0 -0 -0 -0 -1 -0 0 -0 -0 0 0 -0 0 -2 -0 -1 -21
0 0 0 0 0 0 0 0 0 0 0 0 0 0 -1 -0 -0 -0 -1 0 0 -0 -0 -0 -0 0 0 -0 0 0 0 -35
0 0 0 0 0 0 0 0 0 0 0 0 0 0 -0 -0 -0 -0 -1 -0 -1 -0 0 -0 0 0 0 0 0 0 0 0
0 0 0 0 0 0 0 0 0 0 0 0 0 0 0 -0 -0 -0 -0 -0 0 -0 -0 0 -0 0 0 0 0 0 0 0
0 0 0 0 0 0 0 0 0 0 0 0 -0 0 -1 -1 -0 -1 -0 -0 -0 -0 -1 -0 -0 0 0 0 0 0 0 0
0 0 0 0 0 0 0 -0 0 0 -1 -0 -1 -1 -1 -1 -1 -1 -0 -1 0 -0 -0 0 0 0 0 0 0 0 0 0
Wind_Speed
22 24 24 25 25 27 26 26 26 26 26 26 27 25 23 20 16 15 16 17 18 17 16 13 11 9 8 7 7 7 10 20
23 25 25 26 26 27 26 27 27 26 27 29 29 27 24 21 20 18 16 16 17 17 18 17 14 13 10 8 6 6 5 6
24 26 27 27 26 26 26 26 26 27 28 30 29 28 29 28 30 25 19 17 15 18 17 18 17 15 13 10 8 8 5 4
25 26 27 27 26 26 26 26 27 28 29 30 29 30 29 31 30 34 31 24 22 23 24 21 19 20 16 10 11 10 8 6
25 26 26 27 27 28 27 27 28 28 29 30 31 30 30 31 31 30 31 33 30 26 20 23 22 22 19 16 11 11 11 12
25 26 27 28 28 28 28 28 29 29 30 31 32 32 32 32 32 33 32 30 32 32 31 25 19 19 18 20 20 17 14 14
25 26 27 28 28 28 28 29 29 30 30 31 32 33 33 34 34 34 34 34 32 33 33 34 32 25 22 19 22 21 22 24
24 25 27 28 28 28 28 28 29 29 30 31 33 34 34 35 35 34 34 34 35 36 37 36 36 34 31 29 25 20 21 23
24 25 27 27 27 27 27 28 28 29 30 31 33 34 35 36 35 35 35 37 38 37 36 36 35 37 33 31 28 28 22 22
24 25 27 27 27 26 27 27 27 28 29 30 33 33 35 35 34 35 37 37 36 37 38 38 37 36 37 33 30 29 30 24
24 25 27 27 26 26 26 26 27 28 29 31 33 33 35 36 35 35 37 36 36 37 37 38 41 40 41 39 31 27 28 26
24 25 27 27 25 26 26 27 26 28 29 31 33 33 35 35 35 37 37 37 37 38 40 39 41 41 42 40 35 31 27 28
25 26 26 27 27 27 28 29 28 28 30 32 33 34 36 36 36 37 38 39 40 40 40 42 41 41 44 44 39 33 31 29
24 25 25 26 27 27 28 28 29 28 30 31 34 35 36 36 38 39 41 41 41 41 42 43 42 40 42 46 43 40 34 31
24 24 25 26 27 27 28 28 28 29 32 32 35 35 36 37 39 40 41 41 42 42 43 43 47 43 40 37 39 42 41 32
23 23 24 25 27 28 30 30 31 31 32 32 33 34 35 37 40 41 41 42 42 43 43 44 44 48 43 38 40 42 40 40
22 23 24 25 27 28 29 30 30 30 31 33 33 34 34 36 40 40 41 41 43 45 45 45 44 45 45 45 45 47 47 45
21 23 24 26 27 28 28 30 30 31 33 33 34 34 35 36 40 40 40 42 43 44 45 45 45 45 46 44 44 44 48 45
21 23 24 25 27 27 28 29 29 30 32 33 35 35 36 38 40 40 41 42 43 44 45 45 44 45 44 44 44 45 45 45
21 23 25 26 27 27 27 28 28 29 30 32 33 35 36 38 39 40 40 41 42 43 43 45 44 45 44 44 44 43 44 45
Wind_Direction
347 346 344 347 351 346 343 339 336 332 329 322 315 314 315 319 323 325 323 322 323 325 330 336 343 350 354 358 359 359 348 322
342 341 340 340 343 344 345 341 337 334 329 322 316 317 317 318 316 315 317 317 318 319 319 321 324 327 330 334 337 339 340 342
339 337 336 336 340 340 342 343 341 336 330 325 322 319 314 315 307 312 314 311 310 310 311 310 312 313 313 313 318 323 318 328
335 334 334 335 338 338 340 340 338 337 335 329 324 320 319 314 313 307 308 309 306 304 301 301 303 304 307 293 302 304 304 306
336 337 337 337 336 336 336 336 334 332 330 330 327 324 321 319 316 316 312 308 310 306 301 295 293 296 299 299 299 300 297 304
334 336 336 337 336 335 335 335 334 334 331 328 325 324 322 320 318 315 315 315 311 310 306 303 294 290 289 294 295 296 298 298
332 335 335 337 338 338 336 335 333 331 333 332 329 325 324 321 319 316 313 311 311 308 305 304 301 297 292 286 287 289 290 294
333 335 337 337 339 338 338 338 335 335 335 334 332 328 324 322 320 319 318 315 313 308 305 302 299 299 294 289 291 285 285 285
336 337 339 340 340 340 341 341 341 339 337 337 336 334 331 327 325 322 319 316 313 312 308 305 300 296 294 291 284 283 277 279
334 337 338 339 340 340 340 342 343 343 342 341 339 338 335 332 330 326 323 320 319 316 311 307 304 299 296 293 286 279 278 273
331 336 337 337 340 341 341 342 342 341 341 341 341 341 339 335 332 329 327 324 321 319 316 311 305 303 300 294 288 279 271 273
330 334 336 336 339 339 339 339 341 340 340 341 341 341 341 338 334 332 330 327 323 320 314 313 306 302 302 296 291 285 276 265
330 332 334 335 336 336 335 335 336 339 340 340 340 340 339 339 337 335 333 328 324 320 317 312 308 307 301 298 290 283 276 272
328 332 334 336 336 336 335 335 335 338 340 339 340 340 340 339 336 333 331 328 326 323 319 313 309 308 302 299 292 289 278 269
328 331 334 336 337 337 337 337 337 336 336 337 337 339 339 340 337 334 332 330 326 324 321 316 308 307 304 299 295 288 289 278
328 331 334 337 338 337 335 334 333 334 335 336 337 338 337 337 336 334 333 331 329 327 324 319 313 306 305 296 288 289 290 289
328 331 335 337 338 338 337 335 335 336 337 337 338 338 338 338 336 335 334 333 331 329 326 322 317 310 304 299 291 283 283 281
330 331 334 335 336 337 337 336 337 337 337 337 337 336 338 338 337 337 336 334 333 332 330 326 320 313 306 299 291 283 276 277
330 332 333 336 335 336 337 338 339 338 338 336 336 336 337 337 337 336 336 335 335 334 333 330 325 318 310 300 293 285 279 274
331 332 331 333 334 337 340 341 341 340 338 337 337 336 336 337 337 337 337 337 338 337 336 332 330 320 307 300 294 289 281 271